Skip Page Navigation
NASA JPL Caltech
NASA Logo - Jet Propulsion Laboratory + View the NASA Portal
+ Center for Near-Earth Object Studies
JPL Home Earth Solar System Stars & Galaxies Technology
JPL Solar System Dynamics
BODIES ORBITS EPHEMERIDES TOOLS PHYSICAL DATA DISCOVERY FAQ SITE MAP
JPL Small-Body Database Browser
Search: [ help ]  
78763 (2002 UX28)
Classification: Main-belt Asteroid          SPK-ID: 2078763
Ephemeris | Orbit Diagram | Orbital Elements | Mission Design | Physical Parameters | Discovery Circumstances | Close-Approach Data ]

[ show orbit diagram ]
Orbital Elements at Epoch 2459000.5 (2020-May-31.0) TDB
Reference: JPL 18 (heliocentric ecliptic J2000)
 Element Value Uncertainty (1-sigma)   Units 
e .1056507871916365 3.7003e-08  
a 2.748366337632405 1.5665e-08 au
q 2.457999270570546 1.0815e-07 au
i 8.482776188678905 3.6892e-06 deg
node 82.77510879316581 3.3676e-05 deg
peri 26.61616960705954 4.1833e-05 deg
M 246.7294108794234 2.652e-05 deg
tp 2459524.130597958528
(2021-Nov-05.63059796)
0.00012385 TDB
period 1664.218547185309
4.56
1.4229e-05
3.896e-08
d
yr
n .2163177430084934 1.8494e-09 deg/d
Q 3.038733404694264 1.732e-08 au
  Orbit Determination Parameters
   # obs. used (total)      738  
   data-arc span      10758 days (29.45 yr)  
   first obs. used      1991-05-13  
   last obs. used      2020-10-25  
   planetary ephem.      DE431  
   SB-pert. ephem.      SB431-N16  
   condition code      0  
   norm. resid. RMS      .54566  
   source      ORB  
   producer      Otto Matic  
   solution date      2020-Nov-12 21:25:36  

Additional Information
 Earth MOID = 1.47802 au 
 Jupiter MOID = 2.09834 au 
 T_jup = 3.323 
[ show covariance matrix ]

Ephemeris | Orbit Diagram | Orbital Elements | Mission Design | Physical Parameters | Discovery Circumstances | Close-Approach Data ]

Physical Parameter Table
Parameter Symbol Value Units Sigma Reference Notes
absolute magnitude H 15.1   n/a MPO439583  

78763 (2002 UX28)          Discovered 2002-Oct-31 by LINEAR at Socorro
Reference: 20040415/Numbers.arcLast Updated: 2004-04-19

[ show close-approach data ]
Alternate Designations
 2002 UX28 = 2000 HT85 
Ephemeris | Orbit Diagram | Orbital Elements | Mission Design | Physical Parameters | Discovery Circumstances | Close-Approach Data ]
ABOUT SSD CREDITS/AWARDS PRIVACY/COPYRIGHT GLOSSARY LINKS
FirstGov 2020-Dec-01 00:29 UT
(server date/time)  
NASA Home Page
Site Manager:   Ryan S. Park
Webmaster  Alan B. Chamberlin